{"data":{"norad_id":56714,"intl_designator":"2023-068E","name":"ONEWEB-0678","alt_names":[],"object_type":"PAYLOAD","status":"ACTIVE","operator":null,"country":"UK","launch_date":"2023-05-20","launch_site_code":"AFWTR","launch_vehicle":null,"mission":null,"orbit_class":"UNKNOWN","rcs_meters":null,"size_class":null,"mass_kg":null,"dimensions":null,"purposes":["comms"],"wikipedia_slug":null,"has_3d_model":false,"image_url":null,"decayed_at":null,"tle_current":{"epoch":"2026-09-19T22:15:29.245248Z","epoch_age_seconds":67843,"freshness":"FRESH","line1":"1 56714U 23068E   26262.92742182  .00000219  00000+0  54680-3 0  9992","line2":"2 56714  87.8993 240.3087 0002056  76.6797 283.4563 13.15547384161749","mean_motion":13.15547384,"eccentricity":0.0002056,"inclination_deg":87.8993,"raan_deg":240.3087,"arg_perigee_deg":76.6797,"mean_anomaly_deg":283.4563,"bstar":0.0005468,"rev_number":16174,"period_min":109.46013936964,"perigee_km":1200.2168163345,"apogee_km":1203.3336762501,"semimajor_km":7579.9122462923,"source":"CELESTRAK","updated_at":"2026-09-20T09:00:44.795132Z"}}}